Simultaneous Nadir Overpasses (SNOs) Predictions

Prediction of SNOs between AURA and LANDSAT-8 Satellite Orbit:

Table of predicted SNOs for the next 14.0 days since TLE Epoch: 12/27/2024
Index Date (AURA) Time (AURA) Lat,Lon (AURA) SZA (AURA ) Date (LANDSAT-8) Time (LANDSAT-8) Lat,Lon (LANDSAT-8) SZA (LANDSAT-8 ) Distance(km) Time Diff (sec)
1 01/09/2025 11:24:19 -72.36,-168.09 85.71 01/09/2025 11:23:14 -72.33,-170.94 85.73 96.17 65
2 01/09/2025 12:13:43 72.47, -0.63 94.40 01/09/2025 12:12:37 72.44, -3.10 94.37 82.88 66
3 01/09/2025 13:03:09 -72.77, 166.46 85.31 01/09/2025 13:01:59 -72.75, 165.12 85.33 44.06 70
4 01/09/2025 13:52:32 72.82, -25.99 94.74 01/09/2025 13:51:22 72.86, -27.02 94.78 34.22 70
5 01/09/2025 14:41:58 -73.12, 141.08 84.97 01/09/2025 14:40:45 -73.12, 141.12 84.97 1.26 73
6 01/09/2025 15:31:20 73.12, -51.26 95.03 01/09/2025 15:30:10 73.12, -51.23 95.03 1.20 70
7 01/09/2025 16:20:40 -73.11, 116.44 85.00 01/09/2025 16:19:38 -73.11, 116.39 84.99 1.81 62
8 01/09/2025 17:10:02 73.11, -75.91 95.01 01/09/2025 17:09:03 73.12, -75.95 95.02 1.87 59
9 01/09/2025 17:59:23 -73.14, 91.69 84.97 01/09/2025 17:58:30 -73.16, 91.77 84.95 3.44 53
10 01/09/2025 18:48:45 73.15,-100.66 95.04 01/09/2025 18:47:55 73.17,-100.58 95.06 3.45 50
11 01/09/2025 19:38:05 -73.13, 67.05 84.99 01/09/2025 19:37:23 -73.16, 67.04 84.96 3.55 42
12 01/09/2025 20:27:27 73.13,-125.30 95.01 01/09/2025 20:26:48 73.16,-125.31 95.04 3.57 39
13 01/09/2025 21:16:48 -73.16, 42.30 84.97 01/09/2025 21:16:16 -73.16, 42.31 84.98 1.17 32
14 01/09/2025 22:06:10 73.17,-150.05 95.04 01/09/2025 22:05:41 73.16,-150.03 95.03 1.19 29
15 01/09/2025 22:55:30 -73.15, 17.65 84.99 01/09/2025 22:55:09 -73.15, 17.59 84.99 2.15 21
16 01/09/2025 23:44:52 73.15,-174.70 95.01 01/09/2025 23:44:34 73.15,-174.76 95.01 2.15 18
17 01/10/2025 00:34:13 -73.19, -7.10 84.96 01/10/2025 00:34:01 -73.20, -7.04 84.95 2.52 12
18 01/10/2025 01:23:35 73.19, 160.55 95.04 01/10/2025 01:23:26 73.20, 160.62 95.05 2.50 9
19 01/10/2025 02:12:55 -73.17, -31.74 84.99 01/10/2025 02:12:54 -73.20, -31.77 84.97 2.82 1
20 01/10/2025 03:02:17 73.18, 135.91 95.01 01/10/2025 03:02:19 73.20, 135.89 95.04 2.74 2



Historial Predications of SNOs between AURA and LANDSAT-8
